Weather History for PAWD - April, 2013

Change the Weather History Date:

Tuesday, April 9, 2013

  Actual Average Record
Temperature  
Mean Temperature 24 °F -  
Max Temperature 28 °F 43 °F 55 °F (1966)
Min Temperature 19 °F 30 °F 15 °F (1954)
Degree Days  
Heating Degree Days 42    
Moisture  
Dew Point 8 °F    
Average Humidity 53    
Maximum Humidity 63    
Minimum Humidity 43    
Precipitation  
Precipitation 0.00 in - - ()
Sea Level Pressure  
Sea Level Pressure 29.13 in    
Wind  
Wind Speed 22 mph (NNW)    
Max Wind Speed 26 mph    
Max Gust Speed 41 mph    
Visibility 10 miles    
Events      
Averages and records for this station are not official NWS values.
T = Trace of Precipitation, MM = Missing Value Source: NWS Daily Summary

Daily Weather History Graph

Daily Weather History Graph

Search for Another Location

Airport or City:

Trip Planner

Search our weather history database for the weather conditions in past years. The results will help you decide how hot, cold, wet, or windy it might be!

Date:

Astronomy

Apr. 09, 2013 Rise Set
Actual Time 6:57 AM AKDT 9:02 PM AKDT
Civil Twilight 6:12 AM AKDT 9:47 PM AKDT
Nautical Twilight 5:14 AM AKDT 10:46 PM AKDT
Astronomical Twilight 4:00 AM AKDT 12:02 AM AKDT
Moon 6:30 AM AKDT (4/9) 8:52 PM AKDT (4/9)
Length of Visible Light 15h 35m
Length of Day
14h 05m
Waning Crescent, 0% of the Moon is Illuminated
Apr 9
Waning Crescent
Apr 10
New
Apr 18
First Quarter
Apr 25
Full
May 2
Last Quarter

Hourly Weather History & Observations

Time (AKDT) Temp. Windchill Dew Point Humidity Pressure Visibility Wind Dir Wind Speed Gust Speed Precip Events Conditions
12:53 AM 23.0 °F 6.6 °F 10.9 °F 60% 29.17 in 10.0 mi NNW 25.3 mph 39.1 mph 0.00 in   Overcast
1:53 AM 23.0 °F 6.6 °F 10.9 °F 60% 29.15 in 10.0 mi North 25.3 mph 39.1 mph N/A   Overcast
2:53 AM 21.9 °F 5.5 °F 10.9 °F 63% 29.12 in 10.0 mi North 24.2 mph 40.3 mph N/A   Overcast
3:53 AM 21.9 °F 5.5 °F 10.0 °F 60% 29.10 in 10.0 mi NNW 24.2 mph 38.0 mph N/A   Scattered Clouds
4:53 AM 21.0 °F 3.6 °F 10.0 °F 63% 29.08 in 10.0 mi NNW 26.5 mph 38.0 mph N/A   Mostly Cloudy
5:53 AM 21.0 °F 4.6 °F 9.0 °F 60% 29.06 in 10.0 mi NNW 23.0 mph 38.0 mph N/A   Overcast
6:53 AM 19.9 °F 3.2 °F 8.1 °F 60% 29.04 in 10.0 mi NNW 23.0 mph 34.5 mph N/A   Overcast
7:53 AM 19.9 °F 3.5 °F 7.0 °F 57% 29.03 in 10.0 mi NNW 21.9 mph 41.4 mph N/A   Partly Cloudy
8:53 AM 21.0 °F 5.7 °F 6.1 °F 53% 29.03 in 10.0 mi NNW 19.6 mph 33.4 mph N/A   Clear
9:53 AM 21.9 °F 5.5 °F 5.0 °F 48% 29.01 in 10.0 mi NNW 24.2 mph 35.7 mph N/A   Clear
10:53 AM 23.0 °F 8.0 °F 6.1 °F 48% 29.00 in 10.0 mi NNW 20.7 mph 38.0 mph N/A   Clear
11:53 AM 24.1 °F 8.7 °F 8.1 °F 51% 29.00 in 10.0 mi NW 23.0 mph 32.2 mph N/A   Clear
12:53 PM 25.0 °F 11.7 °F 7.0 °F 46% 29.02 in 10.0 mi NW 17.3 mph 32.2 mph N/A   Clear
1:53 PM 26.1 °F 12.3 °F 8.1 °F 47% 29.04 in 10.0 mi NW 19.6 mph 27.6 mph N/A   Clear
2:53 PM 27.0 °F 12.8 °F 8.1 °F 45% 29.06 in 10.0 mi NW 21.9 mph 28.8 mph N/A   Partly Cloudy
3:53 PM 28.0 °F 15.3 °F 8.1 °F 43% 29.08 in 10.0 mi NW 18.4 mph 25.3 mph N/A   Partly Cloudy
4:53 PM 28.0 °F 15.3 °F 8.1 °F 43% 29.12 in 10.0 mi NW 18.4 mph 27.6 mph N/A   Mostly Cloudy
5:53 PM 27.0 °F 15.6 °F 9.0 °F 47% 29.15 in 10.0 mi NW 13.8 mph 21.9 mph N/A   Overcast
6:53 PM 26.1 °F 12.3 °F 9.0 °F 49% 29.19 in 10.0 mi NW 19.6 mph 24.2 mph N/A   Overcast
7:53 PM 25.0 °F 15.5 °F 10.0 °F 53% 29.24 in 10.0 mi NW 9.2 mph 19.6 mph N/A   Overcast
8:53 PM 23.0 °F 11.7 °F 10.0 °F 58% 29.29 in 10.0 mi NNW 11.5 mph 19.6 mph N/A   Overcast
9:53 PM 23.0 °F 9.6 °F 6.1 °F 48% 29.33 in 10.0 mi NW 16.1 mph 23.0 mph N/A   Overcast
10:53 PM 21.9 °F 10.4 °F 6.1 °F 51% 29.38 in 10.0 mi NW 11.5 mph 23.0 mph N/A   Overcast
11:53 PM 21.0 °F 7.1 °F 6.1 °F 53% 29.42 in 10.0 mi NNW 16.1 mph 27.6 mph N/A   Overcast